#timestamp,LO_Frequency,Hit,StdDev 
1512943215.6,286047002.6,N
1512943235.4,286047000.5,N
1512943255.3,286046999.9,N
1512943275.1,286046999.2,N
1512943295.9,286046998.9,N
1512943315.7,286046999.0,N
1512943335.5,286046998.3,N
1512943355.4,286047000.9,N
1512943375.2,286047001.3,N
1512943395.1,286047003.3,N
1512943396.0,286047003.3,N
1512943415.8,286047005.4,N
1512943435.6,286047006.9,Y
1512943455.5,286047003.5,P
1512943475.3,286047001.8,N
1512943495.2,286046999.8,N
1512943515.9,286047001.6,N
1512943535.7,286047002.7,N
1512943555.6,286046999.7,N
1512943575.4,286047002.0,N
1512943595.2,286047004.4,Y
1512943615.1,286047000.5,P
1512943616.0,286047000.5,N
1512943635.8,286047000.5,N
1512943655.7,286046999.7,N
1512943675.5,286047003.9,Y
1512943695.3,286047000.2,P
1512943715.2,286047000.2,N
1512943735.0,286046997.0,P
1512943735.9,286046997.0,N
1512943755.8,286046997.4,N
1512943775.6,286046998.3,N
1512943795.4,286046995.0,Y
1512943815.3,286046996.6,P
1512943835.1,286046996.8,P
1512943855.9,286046998.2,N
1512943875.7,286046998.5,N
1512943895.5,286047001.1,N
1512943915.4,286046998.3,N
1512943935.2,286046999.4,N
1512943955.0,286046997.3,N
1512943956.0,286046997.3,N
1512943975.8,286046997.6,N
1512943995.6,286046996.9,N
1512944015.5,286046997.1,N
1512944035.3,286046998.1,N
1512944055.1,286046999.7,N
1512944075.9,286046998.9,N
1512944095.7,286046998.2,N
1512944115.6,286046998.2,N
1512944135.4,286047000.7,N
1512944155.2,286046999.8,N
1512944175.1,286047000.0,N
1512944176.0,286047000.0,N
1512944195.8,286046999.7,N
1512944215.7,286047001.6,N
1512944235.5,286047002.2,N
1512944255.3,286047000.1,N
1512944275.2,286046999.8,N
1512944295.0,286047001.5,N
1512944295.9,286047001.5,N
1512944315.7,286047002.9,N
1512944335.6,286047002.1,N
1512944355.4,286047002.2,N
1512944375.3,286047001.8,N
1512944395.1,286047002.3,N
1512944415.8,286047000.4,N
1512944435.7,286046998.9,N
1512944455.5,286046998.3,N
1512944475.4,286047001.0,N
1512944495.2,286047000.7,N
1512944515.0,286046998.4,N
1512944515.9,286046998.4,N
1512944535.8,286047002.5,N
1512944555.6,286047002.5,N
1512944575.5,286047000.8,N
1512944595.3,286047001.2,N
1512944615.1,286047000.2,N
1512944635.9,286047002.8,N
1512944655.7,286046998.4,N
1512944675.5,286046998.5,N
1512944695.4,286046998.7,N
1512944715.2,286047000.4,N
1512944735.1,286047000.3,N
1512944736.0,286047000.3,N
1512944755.8,286047000.9,N
1512944775.6,286047000.5,N
1512944795.5,286046998.8,N
1512944815.3,286046997.2,N
1512944835.2,286047000.3,N
1512944855.9,286047001.4,N
1512944875.7,286047001.7,N
1512944895.6,286047000.9,N
1512944915.4,286046999.7,N
1512944935.2,286047001.8,N
1512944955.1,286047000.5,N
1512944956.0,286047000.5,N
1512944975.8,286047002.8,N
1512944995.7,286047000.6,N
1512945015.5,286046995.3,Y
1512945035.3,286046999.1,P
1512945055.2,286046998.6,N
1512945075.0,286046996.6,P
1512945075.9,286046996.6,N
1512945095.8,286046997.4,N
1512945115.6,286047002.2,N
1512945135.4,286047004.0,N
1512945155.3,286047001.2,N
1512945175.1,286046999.0,N
1512945195.8,286047002.3,N
1512945215.7,286047002.6,N
1512945235.5,286047000.8,N
1512945255.4,286046996.6,N
1512945275.2,286046995.5,N
1512945295.0,286046995.2,N
1512945295.9,286046995.2,N
1512945315.8,286046993.6,N
1512945335.6,286046995.3,N
1512945355.5,286046997.5,N
1512945375.3,286046998.6,N
1512945395.1,286047001.0,N
1512945415.9,286046999.7,N
1512945435.7,286046999.7,N
1512945455.6,286046999.7,N
1512945475.4,286047001.1,N
1512945495.2,286047000.8,N
1512945515.1,286047000.7,N
1512945516.0,286047000.7,N
1512945535.8,286047002.4,N
1512945555.6,286047002.7,N
1512945575.5,286047002.3,N
1512945595.3,286047004.3,N
1512945615.2,286047001.3,N
1512945635.9,286046998.9,N
1512945655.7,286046998.6,N
1512945675.6,286047002.0,N
1512945695.4,286047002.7,N
1512945715.3,286046999.6,N
1512945735.1,286046998.9,N
1512945736.0,286046998.9,N
1512945755.8,286047001.1,N
1512945775.7,286047000.7,N
1512945795.5,286047001.7,N
1512945815.3,286047003.7,N
1512945835.2,286047001.5,N
1512945855.0,286047001.1,N
1512945855.9,286047001.1,N
1512945875.8,286046998.7,N
1512945895.6,286046998.5,N
1512945915.4,286046998.7,N
1512945935.3,286046998.6,N
1512945955.1,286047002.5,N
1512945975.9,286047000.2,N
1512945995.7,286046998.9,N
1512946015.5,286046997.2,N
1512946035.4,286046995.0,N
1512946055.2,286046997.2,N
1512946075.0,286046999.4,N
1512946075.9,286046999.4,N
1512946095.8,286046997.1,N
1512946115.6,286046999.2,N
1512946135.5,286047000.1,N
1512946155.3,286047001.8,N
1512946175.1,286047003.2,N
1512946195.9,286047001.4,N
1512946215.7,286047001.8,N
1512946235.6,286047005.5,N
1512946255.4,286047003.2,N
1512946275.2,286047004.3,N
1512946295.1,286047004.2,N
1512946296.0,286047004.2,N
1512946315.8,286047002.2,N
1512946335.6,286047004.4,N
1512946355.5,286047003.2,N
1512946375.3,286047001.9,N
1512946395.2,286047001.8,N
1512946415.9,286047002.9,N
1512946435.7,286047004.8,N
1512946455.6,286047005.8,N
1512946475.4,286047003.8,N
1512946495.2,286047005.4,N
1512946515.1,286047007.1,N
1512946516.0,286047007.1,N
1512946535.8,286047004.9,N
1512946555.7,286047004.8,N
1512946575.5,286047004.0,N
1512946595.3,286047000.0,N
1512946615.2,286047000.2,N
1512946635.0,286047002.5,N
1512946635.9,286047002.5,N
1512946655.8,286047002.7,N
1512946675.6,286046999.1,N
1512946695.4,286047000.2,N
1512946715.3,286046999.5,N
1512946735.1,286047000.2,N
1512946755.8,286047004.3,N
1512946775.7,286047002.6,N
1512946795.5,286047002.0,N
